Wind From: 11-12-2017 12:03 Until: 12-12-2017 06:00 warning for: Wind Level: Orange info button

Power and phone distribution networks may be disrupted for relatively long periods., Roofs and chimneys can be damaged. , Tree branches may break. , Vehicles can be deported. , Traffic may be disrupted, particularly on secondary roads in forest areas. Limit your trips. , Limit your speed in highway driving, especially if you drive a vehicle or hitch sensitive to wind. , Do not go for walks in forests or along the coast., In town, be vigilant against possible falling objects., Do not work on roofs and do not touch any electrical line fallen on the ground., Store or secure sensitive objects to wind or likely to be damaged., Always install power generators outside buildings. 


Meteo18 Weather Cam more information Meteo18 Weather Cam


Thunder radar more information blitzortung!


Rain radar more information rain snow radar


Visit our other weather sites:

Template documentation
and downloads

And another site



Weather Underground History page Text

Daily Summary for September 8, 2017 Units:  English    Metric   Both
« Previous Day
Next Day »
Daily Weekly Monthly Yearly Custom
  High: Low: Average:
Temperature: 67.3 °F 57 °F 61.9 °F
Dew Point: 57.4 °F 49.5 °F 54 °F
Humidity: 88 % 67 % 75 %
Wind Speed: 21 mph 0 mph 7.5 mph
Wind Gust: 25 mph - -
Wind:- - SW
Pressure: 30.1 in 29.7 in -
Precipitation: 0 in    
Historical Graphs
 
 
Tabular Data for September 8, 2017
Time Temperature Dew Point Pressure Wind Wind Speed Wind Gust Humidity Rainfall Rate (Hourly)
00:02 60.1 °F 50.7 °F 30.1 in SW 2 mph 3 mph 71 % 0 in
00:07 60.1 °F 50.2 °F 30.1 in WSW 3 mph 4 mph 70 % 0 in
00:12 60.3 °F 50.4 °F 30.1 in WSW 1 mph 4 mph 70 % 0 in
00:17 60.3 °F 50 °F 30.1 in WSW 1 mph 4 mph 69 % 0 in
00:22 60.3 °F 50 °F 30.1 in SW 1 mph 4 mph 69 % 0 in
00:32 60.4 °F 49.8 °F 30.1 in Calm   3 mph 68 % 0 in
00:37 60.4 °F 49.8 °F 30.1 in West 1 mph 3 mph 68 % 0 in
00:42 60.4 °F 49.5 °F 30.1 in SW 4 mph 4 mph 67 % 0 in
00:47 60.6 °F 49.6 °F 30.1 in SW 1 mph 4 mph 67 % 0 in
00:52 60.6 °F 50 °F 30.1 in SSW 1 mph 5 mph 68 % 0 in
00:57 60.3 °F 50 °F 30.1 in SSW 1 mph 5 mph 69 % 0 in
01:02 59.9 °F 50.2 °F 30.1 in SSW 2 mph 5 mph 70 % 0 in
01:07 59.5 °F 50.2 °F 30.1 in SSW 2 mph 4 mph 71 % 0 in
01:12 59.5 °F 50.2 °F 30.1 in SW 2 mph 4 mph 71 % 0 in
01:17 59.4 °F 50.4 °F 30.1 in SW 3 mph 5 mph 72 % 0 in
01:22 59.2 °F 50.2 °F 30.1 in SSW 4 mph 5 mph 72 % 0 in
01:27 59.2 °F 50.2 °F 30 in SSW 3 mph 5 mph 72 % 0 in
01:32 59.2 °F 50.2 °F 30 in SW 4 mph 4 mph 72 % 0 in
01:42 59 °F 50.4 °F 30 in SW 4 mph 6 mph 73 % 0 in
01:52 58.8 °F 50.2 °F 30 in SSE 3 mph 6 mph 73 % 0 in
01:57 58.8 °F 50.2 °F 30 in SSW 1 mph 5 mph 73 % 0 in
02:07 58.8 °F 50.2 °F 30 in SW 3 mph 5 mph 73 % 0 in
02:12 58.8 °F 50.2 °F 30 in SSW 3 mph 5 mph 73 % 0 in
02:17 58.8 °F 50.2 °F 30 in SW 3 mph 4 mph 73 % 0 in
02:22 59.2 °F 50.5 °F 30 in SW 2 mph 6 mph 73 % 0 in
02:27 59.4 °F 50.7 °F 30 in SW 3 mph 8 mph 73 % 0 in
02:32 59.4 °F 50.4 °F 30 in SW 1 mph 8 mph 72 % 0 in
02:37 59.5 °F 50.9 °F 30 in SW 3 mph 7 mph 73 % 0 in
02:42 59.5 °F 50.9 °F 30 in West 1 mph 6 mph 73 % 0 in
02:47 59.5 °F 50.9 °F 30 in WSW 4 mph 6 mph 73 % 0 in
02:52 59.5 °F 50.9 °F 30 in WSW 5 mph 7 mph 73 % 0 in
02:57 59.5 °F 50.9 °F 30 in SW 4 mph 7 mph 73 % 0 in
03:02 59.4 °F 51.1 °F 30 in WSW 4 mph 7 mph 74 % 0 in
03:12 59.4 °F 51.1 °F 30 in WSW 3 mph 5 mph 74 % 0 in
03:17 59.4 °F 51.1 °F 30 in WSW 1 mph 5 mph 74 % 0 in
03:22 59.4 °F 51.4 °F 30 in WSW 2 mph 5 mph 75 % 0 in
03:27 59.4 °F 51.4 °F 30 in SW 3 mph 5 mph 75 % 0 in
03:32 59.4 °F 51.4 °F 30 in WSW 4 mph 5 mph 75 % 0 in
03:37 59.4 °F 51.4 °F 30 in SW 4 mph 6 mph 75 % 0 in
03:42 59.4 °F 51.4 °F 30 in SW 3 mph 6 mph 75 % 0 in
03:47 59.4 °F 51.4 °F 30 in West 1 mph 8 mph 75 % 0 in
03:52 59.4 °F 51.4 °F 30 in West 2 mph 8 mph 75 % 0 in
03:57 59.4 °F 51.4 °F 30 in WSW 4 mph 8 mph 75 % 0 in
04:02 59.4 °F 51.4 °F 30 in WSW 2 mph 6 mph 75 % 0 in
04:07 59.4 °F 51.4 °F 30 in WSW 2 mph 6 mph 75 % 0 in
04:12 59.4 °F 51.8 °F 30 in SW 4 mph 6 mph 76 % 0 in
04:17 59.4 °F 51.8 °F 30 in SW 3 mph 7 mph 76 % 0 in
04:22 59.4 °F 51.8 °F 30 in WSW 6 mph 7 mph 76 % 0 in
04:27 59.2 °F 51.6 °F 30 in SW 4 mph 7 mph 76 % 0 in
04:37 59.2 °F 52 °F 30 in SW 5 mph 7 mph 77 % 0 in
04:42 59.2 °F 52 °F 30 in West 3 mph 9 mph 77 % 0 in
04:47 59.2 °F 52 °F 30 in WSW 4 mph 9 mph 77 % 0 in
04:52 59 °F 51.8 °F 30 in SSW 1 mph 9 mph 77 % 0 in
05:02 59 °F 51.8 °F 30 in WSW 7 mph 10 mph 77 % 0 in
05:22 58.8 °F 51.3 °F 30 in SW 5 mph 11 mph 76 % 0 in
05:27 58.8 °F 51.3 °F 30 in WSW 6 mph 12 mph 76 % 0 in
05:37 58.6 °F 51.4 °F 30 in WSW 2 mph 12 mph 77 % 0 in
05:47 58.6 °F 51.4 °F 30 in WSW 3 mph 9 mph 77 % 0 in
05:52 58.5 °F 51.3 °F 30 in SW 5 mph 9 mph 77 % 0 in
05:57 58.5 °F 51.3 °F 30 in WSW 7 mph 11 mph 77 % 0 in
06:02 58.3 °F 51.1 °F 30 in SW 7 mph 11 mph 77 % 0 in
06:07 58.3 °F 51.1 °F 30 in SW 8 mph 11 mph 77 % 0 in
06:12 58.1 °F 50.9 °F 30 in WSW 4 mph 11 mph 77 % 0 in
06:22 57.9 °F 51.1 °F 30 in SSW 2 mph 13 mph 78 % 0 in
06:32 57.7 °F 50.9 °F 30 in SW 5 mph 12 mph 78 % 0 in
06:42 57.7 °F 50.9 °F 30 in SW 6 mph 12 mph 78 % 0 in
06:47 57.7 °F 51.3 °F 30 in SW 5 mph 11 mph 79 % 0 in
06:52 57.6 °F 51.1 °F 30 in SW 7 mph 11 mph 79 % 0 in
07:02 57.6 °F 51.1 °F 30 in WSW 4 mph 11 mph 79 % 0 in
07:12 57.4 °F 51.3 °F 30 in SW 5 mph 12 mph 80 % 0 in
07:17 57.4 °F 51.3 °F 30 in SW 1 mph 12 mph 80 % 0 in
07:22 57.2 °F 51.4 °F 30 in SW 4 mph 12 mph 81 % 0 in
07:32 57 °F 51.3 °F 30 in SW 7 mph 9 mph 81 % 0 in
07:42 57 °F 51.3 °F 30 in SW 8 mph 12 mph 81 % 0 in
07:47 57 °F 51.3 °F 30 in SSW 8 mph 12 mph 81 % 0 in
07:52 57 °F 51.3 °F 30 in SW 7 mph 11 mph 81 % 0 in
07:57 57 °F 51.3 °F 30 in SW 7 mph 11 mph 81 % 0 in
08:02 57 °F 51.3 °F 30 in SW 12 mph 12 mph 81 % 0 in
08:07 57 °F 51.6 °F 30 in SW 8 mph 13 mph 82 % 0 in
08:12 57 °F 51.6 °F 30 in SW 5 mph 13 mph 82 % 0 in
08:17 57 °F 51.6 °F 30 in SW 5 mph 13 mph 82 % 0 in
08:22 57 °F 51.6 °F 30 in SW 8 mph 10 mph 82 % 0 in
08:32 57.2 °F 51.8 °F 30 in SW 10 mph 12 mph 82 % 0 in
08:37 57.2 °F 51.8 °F 30 in SSW 7 mph 13 mph 82 % 0 in
08:42 57.4 °F 52 °F 30 in SW 10 mph 13 mph 82 % 0 in
08:47 57.4 °F 52 °F 30 in South 5 mph 13 mph 82 % 0 in
08:52 57.4 °F 52 °F 30 in SSW 8 mph 13 mph 82 % 0 in
08:57 57.6 °F 52.2 °F 30 in WSW 9 mph 13 mph 82 % 0 in
09:02 57.6 °F 52.2 °F 30 in SSW 10 mph 14 mph 82 % 0 in
09:07 57.9 °F 52.5 °F 30 in SW 6 mph 14 mph 82 % 0 in
09:12 58.3 °F 52.9 °F 30 in WSW 14 mph 14 mph 82 % 0 in
09:17 58.3 °F 52.9 °F 30 in SW 11 mph 15 mph 82 % 0 in
09:22 58.5 °F 53.1 °F 30 in WSW 9 mph 15 mph 82 % 0 in
09:32 58.6 °F 52.9 °F 30 in WSW 12 mph 18 mph 81 % 0 in
09:37 58.8 °F 53.1 °F 30 in SW 12 mph 18 mph 81 % 0 in
09:42 58.8 °F 53.1 °F 30 in SW 10 mph 16 mph 81 % 0 in
09:47 58.8 °F 53.1 °F 30 in SSW 11 mph 16 mph 81 % 0 in
09:52 58.8 °F 53.1 °F 30 in SW 11 mph 17 mph 81 % 0 in
09:57 59.2 °F 53.1 °F 30 in SW 9 mph 17 mph 80 % 0 in
10:02 59.4 °F 53.2 °F 30 in South 6 mph 16 mph 80 % 0 in
10:12 59.5 °F 53.1 °F 30 in SSW 6 mph 15 mph 79 % 0 in
10:17 59.9 °F 53.4 °F 30 in SSW 5 mph 15 mph 79 % 0 in
10:22 60.1 °F 53.2 °F 30 in WSW 7 mph 15 mph 78 % 0 in
10:27 60.3 °F 53.4 °F 30 in SSW 7 mph 15 mph 78 % 0 in
10:32 60.3 °F 53.4 °F 30 in SW 10 mph 15 mph 78 % 0 in
10:37 60.3 °F 53.4 °F 30 in WSW 7 mph 20 mph 78 % 0 in
10:47 60.4 °F 53.2 °F 30 in WSW 10 mph 20 mph 77 % 0 in
10:52 60.8 °F 53.6 °F 30 in SW 14 mph 17 mph 77 % 0 in
11:02 61.3 °F 53.8 °F 30 in SW 5 mph 17 mph 76 % 0 in
11:07 61.5 °F 54 °F 30 in WSW 12 mph 18 mph 76 % 0 in
11:12 61.9 °F 54.3 °F 30 in SW 10 mph 18 mph 76 % 0 in
11:17 62.1 °F 54 °F 30 in SW 8 mph 15 mph 75 % 0 in
11:22 62.2 °F 53.8 °F 30 in SW 14 mph 16 mph 74 % 0 in
11:32 62.2 °F 54.1 °F 29.9 in WSW 8 mph 18 mph 75 % 0 in
11:37 62.4 °F 54.3 °F 29.9 in WSW 10 mph 18 mph 75 % 0 in
11:42 62.4 °F 54 °F 29.9 in West 8 mph 18 mph 74 % 0 in
11:52 62.1 °F 54.3 °F 29.9 in West 8 mph 16 mph 76 % 0 in
11:57 62.1 °F 54.3 °F 29.9 in SW 10 mph 16 mph 76 % 0 in
12:02 61.9 °F 54.7 °F 29.9 in SSW 6 mph 16 mph 77 % 0 in
12:07 62.1 °F 54.7 °F 29.9 in SW 18 mph 18 mph 77 % 0 in
12:12 62.4 °F 54.7 °F 29.9 in SSW 10 mph 20 mph 76 % 0 in
12:17 62.1 °F 54.7 °F 29.9 in SW 14 mph 20 mph 77 % 0 in
12:22 61.9 °F 55.2 °F 29.9 in WSW 7 mph 20 mph 79 % 0 in
12:32 62.2 °F 55.6 °F 29.9 in South 5 mph 19 mph 79 % 0 in
12:42 63.3 °F 55.6 °F 29.9 in SW 7 mph 16 mph 76 % 0 in
12:47 63.9 °F 55.8 °F 29.9 in SW 9 mph 19 mph 75 % 0 in
12:52 63.9 °F 55.4 °F 29.9 in SW 6 mph 19 mph 74 % 0 in
12:57 63.7 °F 55.9 °F 29.9 in South 15 mph 19 mph 76 % 0 in
13:02 63.3 °F 55.6 °F 29.9 in South 9 mph 17 mph 76 % 0 in
13:07 63.1 °F 55.8 °F 29.9 in SSW 9 mph 20 mph 77 % 0 in
13:12 63.3 °F 55.6 °F 29.9 in SW 6 mph 20 mph 76 % 0 in
13:17 63.7 °F 55.6 °F 29.9 in SW 4 mph 20 mph 75 % 0 in
13:22 63.9 °F 55.4 °F 29.9 in SW 5 mph 16 mph 74 % 0 in
13:27 64.4 °F 55.6 °F 29.9 in SW 4 mph 14 mph 73 % 0 in
13:32 64.6 °F 55.4 °F 29.9 in SW 3 mph 14 mph 72 % 0 in
13:37 64.6 °F 55.4 °F 29.9 in WSW 8 mph 15 mph 72 % 0 in
13:42 64.2 °F 55.4 °F 29.9 in WSW 10 mph 15 mph 73 % 0 in
13:47 63.9 °F 55.4 °F 29.9 in SW 18 mph 18 mph 74 % 0 in
13:52 63 °F 55.9 °F 29.9 in West 9 mph 19 mph 78 % 0 in
13:57 62.2 °F 56.7 °F 29.9 in WSW 12 mph 19 mph 82 % 0 in
14:02 61.9 °F 57.4 °F 29.9 in WSW 10 mph 18 mph 85 % 0 in
14:07 62.1 °F 57.2 °F 29.9 in West 4 mph 17 mph 84 % 0 in
14:12 62.2 °F 56.7 °F 29.9 in West 6 mph 15 mph 82 % 0 in
14:17 62.8 °F 57.2 °F 29.9 in West 4 mph 15 mph 82 % 0 in
14:22 63.1 °F 56.8 °F 29.9 in WSW 10 mph 14 mph 80 % 0 in
14:27 63.3 °F 57 °F 29.9 in SSW 2 mph 15 mph 80 % 0 in
14:32 63.5 °F 56.8 °F 29.9 in SW 3 mph 15 mph 79 % 0 in
14:37 63.9 °F 56.8 °F 29.9 in SW 8 mph 12 mph 78 % 0 in
14:42 64.2 °F 56.5 °F 29.9 in West 14 mph 14 mph 76 % 0 in
14:47 64.2 °F 56.5 °F 29.9 in SW 4 mph 17 mph 76 % 0 in
14:52 64.8 °F 56.3 °F 29.9 in SW 7 mph 17 mph 74 % 0 in
14:57 65.5 °F 56.7 °F 29.9 in ENE 6 mph 17 mph 73 % 0 in
15:02 65.8 °F 56.5 °F 29.9 in SSW 7 mph 13 mph 72 % 0 in
15:07 65.7 °F 55.9 °F 29.9 in WSW 12 mph 14 mph 71 % 0 in
15:12 65.8 °F 56.1 °F 29.9 in WSW 7 mph 15 mph 71 % 0 in
15:17 65.8 °F 56.1 °F 29.9 in South 10 mph 15 mph 71 % 0 in
15:22 65.7 °F 56.3 °F 29.9 in SW 8 mph 18 mph 72 % 0 in
15:27 65.1 °F 56.3 °F 29.9 in WNW 10 mph 18 mph 73 % 0 in
15:32 65.1 °F 56.3 °F 29.9 in SSW 10 mph 20 mph 73 % 0 in
15:37 65.5 °F 56.7 °F 29.9 in SW 10 mph 20 mph 73 % 0 in
15:47 65.5 °F 56.3 °F 29.9 in SW 6 mph 21 mph 72 % 0 in
15:52 65.8 °F 56.1 °F 29.8 in SW 5 mph 21 mph 71 % 0 in
15:57 65.8 °F 55.8 °F 29.8 in SW 7 mph 21 mph 70 % 0 in
16:02 65.8 °F 56.5 °F 29.8 in WSW 15 mph 18 mph 72 % 0 in
16:07 65.7 °F 56.3 °F 29.8 in SW 3 mph 18 mph 72 % 0 in
16:12 65.7 °F 56.3 °F 29.8 in SW 4 mph 18 mph 72 % 0 in
16:17 65.8 °F 56.5 °F 29.8 in SW 9 mph 18 mph 72 % 0 in
16:22 66 °F 56.3 °F 29.8 in SSW 9 mph 17 mph 71 % 0 in
16:27 66.4 °F 56.3 °F 29.8 in SW 11 mph 18 mph 70 % 0 in
16:32 66.4 °F 55.9 °F 29.8 in SW 9 mph 18 mph 69 % 0 in
16:37 66.4 °F 56.3 °F 29.8 in WSW 9 mph 18 mph 70 % 0 in
16:42 66.4 °F 56.3 °F 29.8 in SW 8 mph 17 mph 70 % 0 in
16:47 66.6 °F 56.5 °F 29.8 in SSW 6 mph 17 mph 70 % 0 in
16:52 66.7 °F 55.8 °F 29.8 in SW 14 mph 17 mph 68 % 0 in
16:57 66.9 °F 55.9 °F 29.8 in SW 8 mph 17 mph 68 % 0 in
17:02 66.7 °F 55.8 °F 29.8 in WSW 6 mph 20 mph 68 % 0 in
17:07 66.6 °F 56.1 °F 29.8 in SW 13 mph 21 mph 69 % 0 in
17:12 66.4 °F 55.9 °F 29.8 in South 5 mph 21 mph 69 % 0 in
17:17 66.4 °F 55.9 °F 29.8 in WSW 4 mph 21 mph 69 % 0 in
17:22 66.6 °F 56.1 °F 29.8 in SW 9 mph 19 mph 69 % 0 in
17:27 66.7 °F 55.8 °F 29.8 in WSW 6 mph 18 mph 68 % 0 in
17:32 67.1 °F 56.1 °F 29.8 in WSW 6 mph 18 mph 68 % 0 in
17:37 67.1 °F 55.8 °F 29.8 in WSW 11 mph 19 mph 67 % 0 in
17:42 67.3 °F 55.9 °F 29.8 in West 5 mph 19 mph 67 % 0 in
17:47 66.9 °F 55.9 °F 29.8 in SW 12 mph 19 mph 68 % 0 in
17:52 66.9 °F 55.9 °F 29.8 in SW 16 mph 19 mph 68 % 0 in
17:57 66.7 °F 56.3 °F 29.8 in SSW 14 mph 18 mph 69 % 0 in
18:02 66.6 °F 56.1 °F 29.8 in SW 12 mph 18 mph 69 % 0 in
18:07 66.6 °F 56.1 °F 29.8 in SW 13 mph 18 mph 69 % 0 in
18:12 66.6 °F 56.1 °F 29.8 in SSW 10 mph 18 mph 69 % 0 in
18:17 66.7 °F 55.8 °F 29.8 in South 7 mph 18 mph 68 % 0 in
18:22 66.9 °F 55.9 °F 29.8 in West 8 mph 18 mph 68 % 0 in
18:32 66.9 °F 55.6 °F 29.8 in SSW 9 mph 18 mph 67 % 0 in
18:42 66.9 °F 55.6 °F 29.8 in SW 12 mph 18 mph 67 % 0 in
18:47 66.9 °F 55.6 °F 29.8 in West 5 mph 18 mph 67 % 0 in
18:52 66.9 °F 55.6 °F 29.8 in SW 13 mph 18 mph 67 % 0 in
19:02 66.4 °F 55.9 °F 29.8 in SW 8 mph 21 mph 69 % 0 in
19:07 66.2 °F 55.8 °F 29.8 in SW 9 mph 21 mph 69 % 0 in
19:12 66 °F 55.6 °F 29.8 in SSW 7 mph 21 mph 69 % 0 in
19:17 66 °F 55.6 °F 29.8 in SW 17 mph 20 mph 69 % 0 in
19:22 66.2 °F 55.8 °F 29.8 in SW 10 mph 19 mph 69 % 0 in
19:27 65.8 °F 55.8 °F 29.8 in WSW 8 mph 18 mph 70 % 0 in
19:32 65.3 °F 56.1 °F 29.8 in West 9 mph 24 mph 72 % 0 in
19:37 64.9 °F 56.1 °F 29.8 in WSW 10 mph 24 mph 73 % 0 in
19:42 64.8 °F 55.9 °F 29.8 in WSW 4 mph 24 mph 73 % 0 in
19:47 64.9 °F 55.4 °F 29.8 in WSW 12 mph 20 mph 71 % 0 in
19:52 65.3 °F 55.2 °F 29.8 in WSW 14 mph 17 mph 70 % 0 in
19:57 65.5 °F 55.4 °F 29.8 in West 15 mph 23 mph 70 % 0 in
20:02 65.3 °F 55.2 °F 29.8 in SW 7 mph 23 mph 70 % 0 in
20:07 65.1 °F 55 °F 29.8 in SW 12 mph 23 mph 70 % 0 in
20:12 65.1 °F 55 °F 29.8 in SW 13 mph 20 mph 70 % 0 in
20:17 65.1 °F 55 °F 29.8 in SW 14 mph 19 mph 70 % 0 in
20:22 65.1 °F 55 °F 29.8 in WSW 11 mph 15 mph 70 % 0 in
20:27 65.1 °F 54.7 °F 29.7 in SW 9 mph 15 mph 69 % 0 in
20:32 65.1 °F 54.7 °F 29.7 in SW 15 mph 19 mph 69 % 0 in
20:37 65.3 °F 54.9 °F 29.7 in SW 10 mph 22 mph 69 % 0 in
20:42 65.1 °F 55 °F 29.7 in SW 13 mph 22 mph 70 % 0 in
20:47 64.9 °F 55.4 °F 29.7 in SW 10 mph 23 mph 71 % 0 in
20:52 64.6 °F 55.4 °F 29.7 in SSW 14 mph 23 mph 72 % 0 in
20:57 64.4 °F 55.2 °F 29.7 in SW 10 mph 21 mph 72 % 0 in
21:02 64.4 °F 55.2 °F 29.7 in WSW 10 mph 21 mph 72 % 0 in
21:07 64.6 °F 55.4 °F 29.7 in WSW 13 mph 21 mph 72 % 0 in
21:12 64.4 °F 55.2 °F 29.7 in SSW 8 mph 21 mph 72 % 0 in
21:17 64.4 °F 55.2 °F 29.7 in SW 13 mph 21 mph 72 % 0 in
21:22 64.4 °F 55.2 °F 29.7 in SW 8 mph 17 mph 72 % 0 in
21:27 64.4 °F 54.9 °F 29.7 in SW 9 mph 15 mph 71 % 0 in
21:32 64.6 °F 55 °F 29.7 in WSW 12 mph 16 mph 71 % 0 in
21:37 64.6 °F 55 °F 29.7 in SW 9 mph 16 mph 71 % 0 in
21:42 64.4 °F 55.2 °F 29.7 in SW 21 mph 21 mph 72 % 0 in
21:47 64.2 °F 55.4 °F 29.7 in SW 10 mph 25 mph 73 % 0 in
21:52 63.9 °F 55.4 °F 29.7 in SW 17 mph 25 mph 74 % 0 in
21:57 63.3 °F 55.2 °F 29.7 in SW 18 mph 25 mph 75 % 0 in
22:02 63.1 °F 55.4 °F 29.7 in SW 11 mph 22 mph 76 % 0 in
22:07 63 °F 55.6 °F 29.7 in SW 7 mph 22 mph 77 % 0 in
22:12 63 °F 55.6 °F 29.7 in SSW 4 mph 18 mph 77 % 0 in
22:17 63 °F 55.6 °F 29.7 in SW 10 mph 17 mph 77 % 0 in
22:27 62.8 °F 55.8 °F 29.7 in SSW 7 mph 15 mph 78 % 0 in
22:32 62.4 °F 55.8 °F 29.7 in SW 10 mph 16 mph 79 % 0 in
22:37 62.1 °F 55.8 °F 29.7 in WSW 4 mph 18 mph 80 % 0 in
22:42 61.3 °F 56.1 °F 29.7 in SW 14 mph 18 mph 83 % 0 in
22:52 60.4 °F 56.3 °F 29.7 in SSW 5 mph 18 mph 86 % 0 in
22:57 60.1 °F 56.5 °F 29.7 in SW 10 mph 17 mph 88 % 0 in
23:02 60.1 °F 56.5 °F 29.7 in SSW 8 mph 17 mph 88 % 0 in
23:07 59.9 °F 56.3 °F 29.7 in SW 8 mph 17 mph 88 % 0 in
23:12 60.1 °F 56.1 °F 29.7 in SW 5 mph 16 mph 87 % 0 in
23:17 60.3 °F 56.3 °F 29.7 in SW 9 mph 15 mph 87 % 0 in
23:22 60.3 °F 56.3 °F 29.7 in SW 6 mph 13 mph 87 % 0 in
23:27 60.3 °F 56.1 °F 29.7 in SW 12 mph 13 mph 86 % 0 in
23:32 60.4 °F 56.3 °F 29.7 in SW 7 mph 13 mph 86 % 0 in
23:37 60.6 °F 56.1 °F 29.7 in SW 8 mph 12 mph 85 % 0 in
23:42 60.8 °F 55.9 °F 29.7 in SSW 7 mph 13 mph 84 % 0 in
23:47 61.2 °F 55.9 °F 29.7 in SW 12 mph 15 mph 83 % 0 in
23:52 61.2 °F 55.9 °F 29.7 in SW 10 mph 17 mph 83 % 0 in
23:57 61 °F 55.8 °F 29.7 in SW 7 mph 17 mph 83 % 0 in
Meteo18
Compliments of Weather Underground - 4 mb

Script developed by  Jim McMurry - jmcmurry@mwt.net Adapted for the template by  Wim van der Kuil - Leuven-Template.eu

You find our weather info also at:

European Weather Network

Weather Underground

Equipment we use:

Weather-station
Davis Vue

Weather-program
Meteohub

Weather-server
Raspberry PI 2 B+

Provider
1 and 1

Davis Vue

Meteohub

Raspberry PI 2 B+

1 and 1